Wind_Speed
36 38 39 38 38 38 38 39 42 45 46 45 42 39 37 36 34 35 37 36 35 34 34 34 35 35 36 37 39 39 40 40 40 40 40 40 41 41 42 42 42 41 41 40 40 40 40 39 39 39 38 37 36 36 36 37 37 37 36 38 39 40 42 44 47 48 46 42 40 43 48 50 49 48 49 50 50 51 53 55 54 55 57 58 59
37 39 40 41 40 38 37 39 41 43 46 48 46 41 38 37 36 37 37 38 38 36 35 35 36 36 36 37 38 39 40 40 40 40 41 41 41 42 42 42 43 43 42 41 41 41 41 40 40 40 39 38 37 36 36 36 36 36 36 38 39 40 42 44 47 49 49 46 42 42 46 50 51 49 50 51 52 54 55 56 56 57 58 59 60
38 40 42 43 42 40 39 40 41 43 45 48 48 44 40 39 38 38 38 38 39 38 36 37 37 37 37 38 38 39 40 40 41 41 41 42 42 43 43 43 44 43 43 42 42 42 42 41 40 40 40 39 37 37 37 36 36 37 38 39 40 41 42 44 46 48 50 49 46 44 46 50 51 51 51 52 53 56 57 57 58 59 60 61 62
39 41 43 44 44 44 43 42 42 43 43 45 49 48 44 41 40 40 38 39 40 40 39 38 38 39 39 39 40 39 40 40 40 41 42 42 43 44 44 44 44 44 43 44 43 43 42 41 41 41 40 39 38 37 36 36 37 38 39 39 41 42 43 45 46 48 51 52 50 48 48 51 53 53 54 54 55 57 58 59 60 60 61 63 64
40 42 43 44 46 47 47 48 46 45 44 44 46 49 48 45 42 41 39 38 40 41 42 40 39 40 41 41 42 41 40 40 40 41 42 43 44 44 45 45 44 44 44 44 44 43 43 42 42 42 41 39 37 36 37 38 39 39 39 40 41 43 44 45 46 49 51 53 53 51 50 52 54 55 55 56 58 59 59 60 61 62 63 64 65
41 43 43 44 46 47 48 50 50 48 46 45 45 48 51 50 45 42 39 38 39 42 43 42 41 41 42 43 44 42 41 41 41 42 43 44 45 45 45 45 45 45 45 45 45 44 43 43 42 42 40 38 37 38 39 40 40 39 39 40 42 44 45 46 48 50 51 53 54 54 53 53 54 54 55 57 60 62 63 62 62 64 65 65 66
41 43 43 44 46 47 49 50 51 50 49 48 47 47 51 52 49 45 41 40 41 42 44 44 43 42 43 44 45 44 43 43 42 43 44 45 45 45 45 45 45 45 45 46 46 45 44 43 42 41 41 40 41 41 41 40 39 38 39 41 43 45 46 48 49 51 52 53 53 54 54 54 55 55 57 59 61 64 67 67 65 66 69 69 69
39 42 44 45 46 47 48 48 50 50 49 49 50 50 51 51 50 47 43 43 44 43 43 44 44 44 46 46 46 46 46 45 44 44 44 45 46 46 46 46 46 46 46 46 46 46 44 44 43 43 43 43 43 42 40 37 37 38 40 42 44 46 48 49 51 52 53 54 54 55 56 56 56 57 59 62 64 65 68 71 70 70 71 71 71
38 40 43 45 45 46 47 47 48 49 48 49 52 53 51 50 49 48 46 45 46 45 45 45 46 46 47 48 48 48 48 47 46 45 45 45 46 46 46 46 47 47 47 47 47 47 46 45 45 45 44 43 42 40 37 36 38 40 41 43 45 47 49 51 52 52 53 55 55 57 58 58 59 60 62 64 67 68 69 72 74 74 74 74 73
41 44 46 47 45 45 46 47 48 48 48 50 52 53 52 51 50 50 48 47 46 47 48 48 48 48 49 50 50 49 49 48 47 46 46 46 47 47 47 47 48 48 48 48 48 48 47 47 46 45 44 43 40 37 36 37 40 42 43 45 47 48 50 51 52 53 54 56 57 58 60 60 61 63 65 66 68 71 72 73 74 75 76 77 77
45 47 50 50 46 44 46 48 48 48 50 51 52 52 52 51 51 51 51 49 49 50 50 49 49 49 50 51 51 51 50 48 47 47 47 48 48 48 48 48 49 49 49 48 48 49 49 47 46 44 43 42 39 37 37 39 42 43 44 46 47 49 51 52 53 54 55 57 58 59 62 63 63 64 67 68 70 71 72 72 71 72 72 74 78
49 50 52 52 50 51 50 49 49 50 52 51 51 51 52 51 51 51 52 52 52 52 51 50 49 48 50 51 51 52 51 49 49 49 49 49 49 49 49 50 50 49 49 49 50 50 49 47 46 44 43 42 39 38 39 41 43 44 45 46 48 49 50 51 52 54 56 58 59 60 62 64 65 65 66 67 69 69 69 68 66 67 68 70 74
55 55 56 55 55 55 52 50 51 52 52 51 50 50 51 51 51 52 53 53 52 51 50 49 48 48 49 50 51 51 51 50 50 51 51 51 50 50 50 50 50 50 50 51 51 50 48 47 46 45 43 42 40 39 40 42 43 44 45 46 48 48 49 50 51 54 57 59 60 61 61 63 65 65 63 64 65 65 66 66 65 65 67 69 71
53 55 55 54 54 54 51 50 52 51 50 50 49 49 50 51 52 52 51 50 49 48 48 47 46 46 47 48 50 50 51 51 52 52 52 51 51 51 51 50 50 51 51 52 51 49 48 47 46 45 44 42 40 40 41 43 44 45 45 47 48 49 50 50 52 55 56 58 60 61 61 61 63 64 62 62 63 63 64 65 65 66 67 68 70
46 48 49 50 50 50 49 49 49 49 48 47 46 46 46 47 47 46 45 44 44 44 44 44 44 44 45 47 48 49 50 51 53 53 52 51 51 51 51 50 51 51 52 52 51 49 48 47 46 46 44 41 40 41 42 43 45 45 46 47 48 49 50 51 53 55 57 58 60 61 61 61 61 62 61 60 60 61 61 63 64 65 67 69 70
41 43 44 45 45 44 44 44 44 44 43 42 42 42 42 42 41 40 40 40 40 41 41 41 41 42 43 45 47 48 49 51 52 51 50 50 50 50 50 50 51 52 52 52 50 48 47 47 47 45 43 40 39 41 43 44 45 46 47 48 49 50 50 51 53 55 57 58 59 59 59 59 59 58 58 57 57 58 61 63 63 63 67 70 71
40 41 42 41 40 39 39 39 39 39 38 39 39 39 39 39 38 39 39 40 40 40 40 39 40 41 42 43 45 46 47 48 48 48 47 48 49 49 50 51 52 52 52 51 49 48 47 47 46 44 41 39 39 41 43 45 46 47 48 48 50 50 50 52 54 55 57 57 57 56 56 56 56 56 55 55 55 57 61 63 63 63 66 70 71
42 42 41 40 38 37 36 36 36 36 36 36 36 36 37 37 39 39 39 39 39 39 39 39 40 41 41 42 42 43 44 44 44 44 45 47 48 49 50 52 53 53 52 50 48 47 47 45 43 42 40 39 39 41 43 45 46 47 48 49 50 51 52 54 55 56 57 56 55 55 54 54 55 55 55 54 54 57 61 64 63 63 66 68 69
43 43 42 41 40 38 36 36 35 35 35 35 35 36 37 38 39 39 39 40 40 40 40 40 41 40 40 40 40 40 41 41 41 42 44 46 47 49 51 53 54 53 51 49 47 46 45 44 41 40 39 39 40 41 42 44 46 47 49 50 51 52 53 54 56 57 57 57 56 55 55 55 55 55 55 55 55 57 60 63 63 62 64 65 65
40 40 41 41 41 41 39 37 36 36 36 37 37 38 38 38 38 38 39 40 41 41 41 42 41 39 39 38 38 38 39 40 40 40 43 46 47 49 51 52 53 52 50 48 47 45 44 42 40 40 39 39 40 41 42 44 46 47 49 50 52 52 54 56 56 57 57 57 56 56 56 55 55 56 56 56 57 58 60 62 63 62 63 62 61
37 37 37 38 40 41 41 40 39 37 37 38 38 38 37 38 37 37 39 40 41 42 42 42 40 38 37 37 37 38 39 39 39 40 43 45 46 47 49 51 51 51 49 47 46 44 43 41 40 39 39 39 41 41 42 43 45 47 49 50 52 53 55 57 57 57 56 56 56 56 55 55 56 56 56 56 57 59 60 62 62 61 61 61 60
39 38 37 37 38 40 41 41 40 39 37 37 37 37 38 39 39 39 40 40 41 42 42 40 39 37 37 37 37 37 38 38 39 41 43 45 46 46 49 50 50 50 49 47 45 43 42 41 40 39 38 39 40 41 42 43 45 47 48 50 51 53 56 57 57 56 55 55 55 56 55 55 56 56 56 56 57 59 60 61 62 61 60 59 59
39 40 40 39 38 38 40 40 40 39 38 36 35 36 39 41 41 41 41 41 41 41 40 39 37 37 36 36 36 37 37 38 40 42 44 46 46 46 48 50 50 49 48 46 44 43 42 42 40 38 38 39 41 42 42 43 45 46 48 49 51 53 55 56 55 55 54 54 55 55 55 55 56 56 56 56 57 58 60 61 61 61 60 59 57
34 36 38 39 38 38 39 41 40 38 37 36 36 36 38 40 42 44 44 44 44 43 41 39 38 36 35 35 36 38 38 39 41 43 46 47 46 46 48 49 49 48 47 45 44 43 43 41 39 38 37 39 41 42 42 43 44 46 48 50 51 53 54 54 54 53 54 54 54 55 55 55 56 57 57 57 57 58 59 60 61 61 60 59 57
37 35 35 36 36 36 39 40 39 35 33 34 35 36 38 40 43 45 46 47 47 46 44 42 40 37 35 35 38 40 40 41 43 45 46 46 47 47 48 48 48 47 45 44 43 43 42 41 38 37 37 39 41 41 41 42 44 46 48 49 51 52 53 53 52 52 52 53 54 55 55 55 56 57 57 58 58 58 59 60 60 60 59 59 57
43 42 40 39 38 36 37 37 36 34 33 34 35 37 38 40 41 44 46 47 47 48 47 44 43 41 38 38 40 43 43 43 44 46 47 47 47 48 48 47 48 46 45 44 43 43 41 39 37 36 37 39 40 40 40 42 44 46 47 49 50 51 51 50 50 51 51 52 53 54 55 56 56 56 57 58 58 58 58 59 59 59 58 59 58
49 48 47 46 44 42 41 39 39 38 37 37 38 39 40 41 41 41 42 42 43 45 47 47 46 43 41 41 43 45 44 43 42 44 45 47 47 48 48 47 46 45 44 44 43 42 40 38 36 36 38 39 39 39 40 41 43 46 47 48 48 48 48 48 49 49 51 52 53 54 54 55 56 56 56 57 57 57 57 57 58 58 58 59 59
53 53 52 51 50 50 49 47 45 43 41 41 42 42 42 42 43 43 42 42 42 42 43 46 47 45 43 43 44 45 45 44 43 42 42 44 46 47 47 47 45 44 45 44 42 41 39 36 35 36 37 37 38 38 40 42 44 45 45 46 46 46 46 46 47 47 49 50 51 52 53 53 54 55 55 56 56 56 56 57 57 58 58 58 59
54 54 54 54 54 55 55 54 52 49 47 45 44 44 44 43 43 44 45 46 46 44 43 45 46 45 44 43 44 45 46 45 42 40 40 42 44 46 46 45 44 45 46 44 41 39 36 35 34 35 36 36 37 39 40 41 42 43 43 43 44 44 44 44 44 45 46 47 49 51 52 52 53 54 55 55 55 56 56 57 57 57 57 57 58
53 53 53 54 54 55 56 56 56 55 53 49 47 46 47 45 44 45 45 44 45 46 46 46 46 46 46 45 44 45 45 43 40 40 42 43 44 45 45 44 45 47 46 42 39 37 34 33 33 34 35 36 37 38 39 40 40 40 40 41 41 42 42 42 42 43 44 46 48 49 50 51 52 53 54 55 55 56 56 57 57 56 55 56 57
51 53 52 51 52 53 54 55 55 55 54 53 51 49 49 47 46 47 47 46 45 47 50 50 49 49 50 49 47 47 47 46 45 46 46 45 45 45 44 45 47 47 44 40 37 34 32 32 33 34 35 35 36 37 38 39 39 39 39 39 39 40 41 41 41 42 43 45 46 48 49 50 51 53 54 55 55 56 56 57 56 55 53 53 54
50 52 51 50 50 51 52 52 53 52 52 53 52 51 50 48 48 49 49 48 48 50 52 53 52 52 52 51 50 50 50 49 50 50 48 47 47 46 45 46 47 45 42 38 34 32 31 32 33 34 34 34 35 36 37 38 38 38 38 38 38 39 40 40 41 42 43 44 45 47 48 50 51 52 53 54 55 56 57 57 56 55 53 51 51
49 50 50 50 50 50 51 51 51 51 50 50 50 50 49 48 49 51 52 50 50 51 53 54 54 54 54 53 52 51 51 51 51 51 50 49 47 46 46 46 46 43 39 35 32 31 31 32 33 32 32 33 34 35 36 37 37 37 37 37 38 38 39 40 40 41 42 43 44 46 47 49 51 52 52 53 55 56 57 57 55 54 53 52 51
50 50 50 50 50 51 52 52 52 51 50 49 48 49 49 48 49 51 53 53 52 53 53 53 52 52 52 52 52 53 53 53 53 53 51 47 45 45 46 46 44 41 37 33 31 30 31 31 31 30 30 32 33 34 35 35 35 36 36 37 37 38 38 39 40 40 41 41 42 44 47 48 50 51 52 53 54 56 56 56 55 55 54 54 53
52 51 50 51 52 52 52 52 53 52 51 51 50 50 49 48 49 51 53 53 53 53 52 51 51 50 50 51 53 54 54 55 55 54 50 45 44 46 46 44 41 38 35 32 31 30 30 30 29 28 29 31 32 33 33 33 34 35 35 36 36 36 37 38 39 39 40 40 41 44 46 48 49 51 52 53 55 56 56 55 56 56 56 56 56
54 52 50 51 51 51 51 51 52 52 52 52 52 52 52 51 50 51 53 53 53 52 52 51 50 49 48 50 53 55 55 55 55 51 46 44 45 45 43 40 38 36 33 31 29 29 28 27 27 27 29 30 30 31 32 32 33 34 35 35 35 36 36 37 38 39 39 40 41 43 46 48 49 50 52 53 55 55 55 55 56 58 58 57 57
56 53 51 50 50 50 50 50 49 50 50 51 51 51 52 52 52 53 54 54 52 51 51 51 50 49 49 51 54 55 56 55 52 47 44 44 45 43 40 38 36 33 31 29 28 27 26 25 25 26 27 28 29 30 30 31 32 33 34 34 35 35 36 36 37 38 39 40 41 43 45 47 49 50 52 53 54 55 56 56 58 59 59 58 58
57 55 53 52 52 52 52 51 49 49 49 49 49 48 49 50 51 52 53 54 53 52 50 50 50 49 48 49 52 55 56 54 50 47 45 44 43 41 38 35 32 30 29 28 26 25 24 23 24 24 25 26 27 28 29 30 31 32 33 33 34 34 35 36 36 38 39 40 41 43 45 47 49 50 52 53 54 55 56 58 59 61 61 59 58
57 56 55 54 54 54 54 53 52 51 49 48 48 47 47 47 48 49 50 51 51 50 49 49 49 49 47 47 49 52 52 50 48 45 43 42 41 38 35 32 29 28 28 26 24 23 22 22 22 22 24 25 26 27 28 29 30 31 32 32 33 33 34 35 36 37 38 39 41 43 45 47 49 50 52 53 53 55 57 59 60 62 62 61 60
57 56 56 56 56 55 55 54 54 53 51 50 48 47 46 45 46 46 47 48 48 47 46 45 46 47 46 44 45 45 43 41 41 41 41 41 39 36 32 30 28 27 26 24 23 22 21 20 20 21 23 24 25 26 27 29 30 30 31 32 33 33 34 35 36 37 38 39 41 43 44 46 49 51 52 53 54 55 57 59 61 62 62 62 61
57 57 56 56 56 55 55 54 53 52 51 51 49 47 46 44 44 45 45 45 45 44 42 42 42 42 41 40 39 37 34 34 37 40 41 39 36 32 29 28 27 26 25 23 21 20 18 18 19 20 22 23 24 26 27 29 29 30 30 31 32 33 34 34 36 37 38 39 41 42 44 46 48 50 52 54 55 56 57 59 61 62 62 62 61
56 56 56 55 54 54 53 52 51 50 50 50 49 47 45 44 43 43 43 43 42 42 41 40 40 38 36 35 33 32 33 35 38 40 39 36 32 30 28 27 25 24 23 21 19 18 16 16 18 20 21 23 24 25 27 28 28 29 30 31 32 33 33 34 36 37 38 39 41 42 43 45 47 49 52 54 56 58 59 59 61 62 62 62 61
50 51 52 52 51 50 50 48 47 46 47 47 46 45 44 43 42 42 42 42 42 42 41 38 34 31 31 32 32 34 36 39 40 38 35 32 30 28 27 26 24 23 22 20 17 15 14 16 17 19 21 22 23 25 26 27 28 29 30 30 31 32 33 34 35 37 38 40 41 42 44 45 46 49 51 54 56 58 59 60 61 62 62 63 62
43 45 46 47 47 46 45 44 44 43 44 44 44 43 42 41 41 41 41 40 39 39 35 30 26 27 30 33 35 38 39 40 38 36 33 31 29 28 26 25 24 22 21 18 15 14 14 15 17 19 20 21 22 24 25 26 27 29 30 30 31 32 33 34 35 37 38 40 41 42 44 45 46 48 51 53 55 58 60 60 62 62 63 63 63
39 39 40 41 41 40 40 40 40 40 40 40 40 40 39 39 39 38 36 34 34 32 28 26 27 30 32 35 37 38 38 37 36 35 33 31 29 27 26 25 23 22 19 16 14 13 14 15 17 18 19 20 22 23 25 26 28 29 30 31 32 33 34 34 35 37 38 40 41 43 44 45 46 48 50 52 55 57 59 61 62 62 63 64 63
35 34 34 34 34 33 34 35 36 36 36 36 36 36 36 36 35 33 31 31 30 28 28 30 31 33 34 35 37 37 37 36 36 34 31 30 28 27 25 24 22 20 17 14 13 14 14 15 16 18 19 20 22 23 24 26 27 28 30 31 32 33 34 35 36 37 38 40 41 43 44 45 47 48 50 52 54 56 58 60 61 62 63 63 64
31 32 31 30 29 29 30 31 32 33 33 33 33 33 32 32 31 30 30 30 30 30 32 33 33 33 33 35 36 37 36 35 34 32 30 29 27 26 25 23 21 18 15 14 14 14 14 15 16 17 18 19 21 22 24 25 26 28 29 30 31 33 34 34 35 37 38 39 41 42 43 45 47 48 49 51 53 55 57 59 60 61 62 63 63
28 29 30 29 29 29 29 29 29 30 29 29 29 30 30 30 30 29 29 30 32 34 34 33 32 33 35 36 36 36 35 33 32 31 29 28 26 25 24 21 19 16 15 14 14 14 14 15 15 16 17 18 20 21 23 25 26 27 28 30 31 32 33 34 35 36 37 38 40 41 42 44 46 47 49 50 52 54 56 58 60 61 61 62 62
27 28 28 29 29 29 29 29 28 28 27 27 28 28 29 28 27 27 30 33 34 33 31 31 32 34 35 36 35 34 33 32 31 30 28 26 25 24 22 19 17 16 15 14 14 14 14 15 15 16 17 18 20 21 23 24 26 27 28 29 30 32 33 34 35 36 37 38 39 40 41 43 45 46 48 49 51 52 54 56 58 60 61 61 61
27 27 27 27 28 29 29 28 27 26 25 25 24 24 24 26 29 32 35 34 32 30 30 31 33 34 34 34 33 32 31 30 29 28 26 25 24 22 20 18 17 16 15 14 14 14 15 15 16 17 17 18 20 22 23 25 26 27 28 29 30 31 33 34 35 36 37 38 39 39 40 42 44 45 47 48 49 51 52 54 56 59 60 61 61
26 26 25 26 27 27 26 25 24 22 21 20 21 23 27 31 34 34 33 30 29 29 31 32 33 32 32 31 31 30 29 29 28 26 25 23 22 20 18 17 16 15 14 14 14 15 16 16 17 17 18 19 21 22 24 26 27 28 29 30 31 32 33 34 35 36 37 38 38 38 39 41 43 44 46 47 49 50 51 52 54 57 58 59 60
Wind_Direction
254 255 261 267 269 266 264 265 265 266 265 265 269 272 273 275 277 279 281 282 281 276 270 267 267 268 267 267 268 269 271 273 273 275 276 276 277 277 276 276 275 275 275 275 276 277 277 277 278 279 280 280 281 280 280 280 279 280 281 283 285 288 289 290 289 286 286 293 297 298 302 303 303 304 304 302 303 303 302 301 300 299 298 297 296
254 256 260 264 267 267 264 263 262 263 263 263 265 268 272 274 275 276 278 280 280 279 275 270 267 267 268 267 268 268 269 271 272 274 275 276 277 277 276 275 274 274 274 274 275 276 276 277 277 278 279 279 279 279 278 278 278 279 281 283 285 288 290 291 292 291 287 290 296 299 300 301 301 303 303 302 303 303 301 301 302 301 299 298 297
254 256 259 262 265 267 265 263 262 261 261 261 262 263 268 271 271 274 275 275 276 277 277 273 268 267 268 268 267 267 268 269 271 273 274 275 275 275 275 274 273 273 273 273 274 274 275 276 276 277 277 278 277 277 276 277 278 279 280 283 285 288 291 292 294 296 293 292 297 301 300 299 301 303 303 302 303 302 300 301 302 301 300 299 299
254 255 257 260 263 265 265 265 264 262 261 260 261 261 263 266 268 270 271 271 272 274 275 274 269 267 268 269 268 268 268 269 270 271 272 273 273 273 273 273 272 272 272 272 273 273 273 274 274 275 276 276 276 275 276 276 277 279 281 284 287 289 292 294 296 298 297 295 298 302 301 301 302 303 303 304 303 302 301 302 301 301 301 301 301
255 256 256 257 259 262 265 266 266 265 263 260 259 258 259 262 264 264 266 268 269 270 272 273 271 267 266 268 269 269 269 269 269 270 270 271 272 271 272 272 272 272 272 271 272 272 272 272 273 274 274 274 274 274 274 275 276 279 282 285 288 290 291 294 297 298 299 299 300 301 302 301 300 301 304 305 303 302 302 301 302 302 301 301 302
256 258 258 256 256 258 260 263 265 266 265 262 258 256 255 258 260 258 260 264 265 266 269 270 270 267 264 265 267 268 269 269 269 269 269 270 270 271 272 272 271 271 271 271 271 271 271 271 271 271 272 272 272 272 272 274 277 280 283 286 288 290 292 296 298 299 299 300 300 300 300 300 298 300 304 306 304 303 303 301 301 303 304 303 302
258 259 260 258 255 255 256 259 262 264 265 263 259 255 252 253 255 254 255 259 263 263 264 266 268 267 263 262 263 265 267 269 269 269 270 270 271 271 272 271 271 271 270 270 270 269 268 268 268 269 270 270 271 272 273 276 279 281 284 286 288 291 294 296 298 298 298 298 299 299 299 299 300 302 305 307 306 306 307 305 301 302 304 304 303
260 259 259 258 256 256 256 258 260 261 262 260 258 255 252 250 250 250 253 257 262 263 262 262 264 265 263 261 261 262 264 267 268 269 270 271 271 271 271 270 270 270 270 269 268 268 267 266 266 268 271 272 273 275 276 278 280 281 284 287 290 293 294 295 296 297 298 298 299 300 300 301 305 307 308 308 308 308 309 308 305 304 304 304 304
263 259 258 258 256 257 258 259 260 260 259 257 256 255 254 251 248 247 252 257 261 264 264 260 259 260 261 260 260 260 261 264 267 269 270 270 269 269 269 269 269 269 268 268 267 266 266 265 266 269 273 275 275 276 277 278 279 281 284 287 289 291 293 295 297 298 300 301 302 304 305 307 310 310 309 309 310 309 309 308 307 307 307 306 305
266 262 261 259 257 256 257 258 259 258 257 256 256 255 254 254 251 247 251 257 260 264 266 262 257 258 259 260 259 260 260 262 265 267 268 268 267 267 267 268 268 267 266 266 266 265 265 265 268 272 274 275 274 273 275 277 278 281 284 287 289 292 295 297 300 301 303 304 305 307 309 310 311 310 310 310 310 309 309 308 308 309 309 308 306
268 266 263 261 259 257 256 257 257 257 257 255 255 255 254 254 253 249 250 255 260 264 265 261 257 257 258 259 259 259 259 260 262 264 265 265 265 266 266 265 265 265 264 264 264 264 265 267 269 272 274 273 271 270 272 275 277 280 284 288 291 294 297 299 301 304 305 305 307 309 309 309 310 310 311 311 310 309 309 309 309 309 308 306 305
265 266 265 263 263 263 261 259 258 257 257 257 257 256 254 253 252 249 249 254 260 262 262 260 258 257 257 258 258 258 258 258 259 262 263 264 264 264 264 264 263 263 263 263 264 265 267 268 270 271 271 269 268 269 271 273 277 280 284 287 290 294 297 300 302 304 305 305 306 308 309 309 310 311 312 310 308 308 308 307 308 307 305 304 304
262 263 264 264 265 266 264 261 259 258 259 259 258 257 254 251 249 249 251 255 258 259 259 258 257 256 256 256 257 257 257 257 257 260 262 263 263 263 263 263 263 262 263 263 265 267 268 268 269 269 269 267 266 268 270 272 276 280 283 287 290 294 297 300 302 303 303 305 307 308 309 310 310 311 310 308 307 307 308 308 308 307 305 305 305
260 261 263 263 264 264 262 260 261 260 260 260 259 257 254 251 250 250 252 255 256 257 257 256 255 254 254 254 255 255 255 255 256 258 260 262 262 262 262 262 262 263 264 264 266 267 267 267 268 269 267 265 265 267 269 272 276 280 284 287 290 294 296 298 300 301 304 306 307 308 309 309 309 309 309 309 308 309 310 309 308 307 307 306 305
259 260 260 261 261 261 262 262 263 262 261 259 257 254 252 250 250 251 253 254 255 255 254 252 251 251 252 252 253 254 254 255 257 258 260 261 261 261 261 262 263 264 264 265 266 266 266 267 267 266 264 263 264 266 269 273 277 281 284 288 290 293 295 298 301 302 305 307 307 308 309 309 310 310 310 311 310 310 310 308 308 308 308 306 304
257 258 258 258 260 261 262 261 260 259 256 254 253 252 251 251 252 252 253 253 252 251 250 250 250 250 251 251 253 254 254 256 258 259 261 261 261 262 262 262 263 263 263 264 264 264 265 265 265 264 262 262 265 268 271 275 279 282 285 288 291 294 297 300 302 303 306 307 308 309 310 310 310 310 311 311 310 310 308 306 308 309 307 305 304
253 254 254 255 256 257 257 256 255 253 252 252 252 252 253 253 252 252 252 251 251 250 249 249 250 250 251 252 254 255 255 257 260 261 262 262 263 264 263 262 262 261 260 262 263 263 264 264 263 261 261 263 268 271 274 277 281 284 287 290 293 296 298 300 301 304 306 308 309 309 309 310 310 310 311 311 310 309 307 306 309 308 305 304 305
253 251 250 249 249 249 250 251 251 251 251 252 252 253 253 252 252 251 250 249 248 248 248 248 248 249 250 252 253 254 256 258 260 262 262 262 264 265 263 260 258 258 258 260 261 263 264 262 260 260 261 266 272 274 277 280 282 286 289 293 295 297 299 300 302 305 307 307 308 309 310 311 312 312 312 312 311 309 307 307 309 307 305 305 304
253 251 250 247 245 244 245 246 246 247 248 249 250 250 250 250 250 250 249 248 247 247 247 246 247 248 249 250 251 253 255 257 260 262 262 263 263 263 261 258 257 256 258 259 261 263 262 260 258 260 263 269 274 277 280 282 285 288 292 295 298 300 301 303 305 307 307 307 309 310 312 314 314 313 314 313 312 310 308 307 308 306 305 304 303
250 251 250 247 245 242 240 239 240 242 245 245 245 245 245 247 248 248 247 247 246 246 246 246 247 247 248 248 250 252 254 256 258 260 261 262 262 261 260 258 257 257 258 260 262 263 260 257 257 260 265 271 276 279 282 284 287 291 295 298 300 302 304 305 307 308 308 310 312 314 315 316 316 316 315 314 312 310 308 308 308 307 305 304 302
244 247 248 246 244 241 237 235 236 238 240 242 243 242 243 244 245 245 246 246 246 246 245 244 245 246 246 248 250 252 254 255 256 257 258 260 261 261 260 259 258 258 259 260 262 261 258 255 256 260 266 272 277 281 284 286 290 293 297 300 302 304 306 307 309 310 311 313 315 316 317 318 317 316 315 313 312 310 309 308 308 307 306 304 302
241 242 244 244 243 241 239 236 234 233 234 238 240 240 241 242 243 245 247 248 248 248 246 244 244 244 245 248 252 254 255 255 255 256 257 259 260 260 259 258 258 258 259 261 261 258 254 253 255 259 266 273 278 282 285 287 291 295 299 301 303 305 307 309 311 312 314 316 317 317 318 318 316 315 313 312 311 309 309 309 308 308 307 305 302
246 244 245 245 246 246 245 244 242 239 238 238 239 241 241 242 242 243 245 246 248 249 249 248 246 245 246 250 254 256 257 256 256 256 257 258 260 260 257 256 257 259 260 261 260 255 251 252 254 259 266 273 278 282 285 288 292 297 300 302 303 305 308 310 313 314 316 317 318 318 318 317 315 314 313 312 311 309 309 310 309 309 308 306 303
256 251 249 248 248 249 248 248 248 249 249 247 246 246 246 245 244 243 243 244 245 247 248 248 247 247 249 252 256 259 259 257 256 256 256 256 258 259 257 255 257 260 261 260 256 252 250 251 254 260 267 273 277 281 285 289 294 298 300 302 304 307 309 312 314 315 317 317 317 317 317 316 315 314 313 312 311 311 311 311 310 309 308 306 304
266 262 258 254 252 250 250 248 248 252 257 257 254 251 250 249 248 246 245 244 243 243 244 245 246 247 250 256 260 261 260 257 254 253 254 255 255 257 256 255 257 260 260 257 252 249 249 251 255 262 268 273 277 281 286 291 296 298 300 303 306 309 311 313 315 316 316 316 316 316 316 316 315 315 314 313 313 313 312 311 310 309 308 306 303
273 270 268 264 261 259 258 256 255 259 265 268 266 263 260 257 254 252 251 250 248 245 243 244 245 246 249 257 261 260 258 256 255 254 253 253 253 254 255 255 257 258 257 252 248 247 248 252 257 264 270 274 277 282 288 293 296 299 301 305 309 311 313 314 315 315 315 316 316 317 317 316 316 315 314 313 314 314 314 313 311 310 309 307 304
281 279 277 273 268 266 266 266 266 266 268 270 271 271 269 267 265 260 257 258 258 254 248 246 246 245 249 255 259 260 259 259 260 260 258 255 254 253 254 255 257 257 254 249 245 245 248 252 259 265 270 274 279 285 290 293 296 299 304 308 311 313 314 315 315 315 316 317 317 317 317 316 315 315 314 314 315 315 315 315 314 313 312 309 306
284 283 282 279 275 272 271 271 270 271 274 276 275 275 274 274 273 271 266 266 268 268 263 257 250 245 247 252 257 261 262 261 262 263 263 260 256 253 253 254 255 254 251 246 244 245 248 254 260 265 271 276 281 286 289 293 297 301 306 310 313 314 314 314 314 315 316 317 317 317 317 316 316 316 316 316 316 317 317 318 317 315 313 310 308
284 283 283 282 280 279 277 276 275 275 277 278 277 276 276 275 274 274 273 271 271 271 272 267 258 249 246 249 254 259 263 264 264 262 260 257 254 251 250 252 252 250 246 243 243 245 250 256 261 266 272 277 282 286 291 295 300 304 308 311 313 314 313 313 314 315 316 317 317 317 317 317 318 318 318 318 318 319 320 320 318 316 314 311 308
281 281 281 280 280 280 279 279 278 277 276 275 273 272 273 272 269 267 269 270 269 267 265 263 260 255 251 250 251 254 259 261 259 254 251 249 248 247 248 248 247 245 242 241 242 246 252 257 263 268 273 277 282 288 293 297 302 307 310 312 313 312 312 312 314 316 317 318 318 318 319 320 321 320 320 320 320 321 321 321 319 317 314 311 309
276 277 276 276 275 275 275 275 275 275 274 273 271 270 269 268 264 261 261 262 263 262 260 258 257 256 254 251 249 250 251 251 249 248 246 243 243 245 246 245 244 241 238 239 243 248 254 259 264 269 273 278 284 289 294 299 304 308 311 312 312 311 311 313 315 316 318 319 319 320 321 322 322 322 322 322 322 322 323 321 320 317 314 311 309
272 272 272 270 269 268 269 269 269 269 270 270 269 268 267 264 260 257 257 257 257 258 259 258 257 256 254 252 250 248 248 247 247 247 244 240 239 241 243 242 240 237 235 237 242 249 255 260 265 269 274 280 286 291 295 300 305 308 310 311 311 311 312 314 316 318 319 320 321 322 323 323 324 323 323 324 324 324 324 322 320 319 316 313 310
269 268 267 265 263 262 262 262 263 264 265 266 267 265 264 261 257 254 254 255 254 254 256 257 257 256 254 251 249 248 246 244 245 245 243 239 238 240 241 240 237 233 233 236 242 249 255 261 265 270 275 282 287 292 298 302 306 309 310 310 311 312 313 315 317 319 320 322 323 325 325 325 325 323 323 325 326 325 324 323 322 321 319 316 313
269 267 265 264 262 260 259 258 257 258 259 259 260 260 260 259 255 252 252 252 252 251 252 254 255 256 254 251 248 246 244 243 243 242 240 238 240 242 241 238 233 230 231 235 241 248 255 261 266 271 277 284 289 295 301 305 307 308 309 310 312 313 314 317 318 319 321 324 325 326 326 326 326 324 324 326 327 326 325 325 325 324 323 320 317
270 269 268 267 265 262 260 258 257 255 254 254 254 255 256 256 254 253 252 252 252 251 251 251 253 254 255 252 248 244 242 242 242 239 235 236 239 241 238 234 230 228 230 234 241 249 255 260 266 273 279 285 291 298 303 306 307 308 309 311 312 314 315 317 319 321 323 325 327 328 329 328 327 326 327 328 328 327 326 327 328 327 326 324 320
270 269 268 269 268 266 264 261 259 257 256 254 253 253 253 253 252 253 253 253 253 252 251 250 251 252 252 251 247 243 241 239 238 234 232 234 238 238 235 231 228 228 231 235 242 249 255 260 267 274 281 288 294 300 304 305 306 308 310 311 313 315 317 319 321 322 324 327 329 330 330 330 329 329 330 329 327 327 328 330 330 329 328 326 323
269 268 267 267 267 266 264 262 260 258 257 256 255 254 253 252 252 252 253 255 255 254 253 252 251 251 251 248 245 242 239 236 233 230 231 235 237 234 229 225 226 229 234 238 244 249 254 261 269 276 283 291 298 302 304 305 307 309 311 312 314 316 318 320 322 324 325 328 330 331 331 332 332 332 332 330 328 328 330 332 332 331 330 328 325
267 267 266 265 264 263 262 261 260 258 257 255 255 254 253 252 252 251 252 254 256 256 256 255 254 255 254 252 247 242 238 234 231 229 230 233 233 229 224 222 225 231 236 241 245 249 255 263 270 279 288 295 300 302 304 305 307 309 311 313 315 317 320 321 323 325 326 328 330 332 332 333 334 334 333 331 330 330 333 334 334 332 331 329 327
266 266 265 265 264 262 261 260 259 258 256 255 254 253 253 252 252 252 252 254 255 257 258 257 257 258 258 256 251 245 241 239 237 234 231 231 229 223 220 221 226 232 238 242 245 249 257 265 273 283 292 297 300 303 304 305 308 309 311 314 316 318 321 322 323 324 326 327 330 332 333 334 336 336 334 333 333 334 335 335 335 333 332 330 329
264 264 264 264 263 262 261 259 258 256 255 254 253 253 253 253 252 253 253 254 255 257 258 258 259 259 258 256 252 246 242 242 242 236 229 226 222 217 216 221 227 232 237 240 244 250 258 268 278 288 295 299 301 303 304 306 309 311 313 315 317 319 322 322 323 325 326 328 330 332 333 336 336 335 335 335 336 337 337 336 335 334 333 331 330
263 263 263 262 261 261 260 259 257 255 253 252 252 252 252 251 252 252 253 253 255 257 257 259 261 260 255 251 246 240 236 237 236 230 223 218 214 212 215 221 226 231 235 239 244 252 261 273 284 292 298 300 302 303 304 307 309 312 315 317 319 321 323 324 325 326 327 328 330 332 334 336 335 334 336 338 338 339 338 337 335 335 334 333 332
263 263 262 260 259 258 258 257 256 253 250 248 249 250 250 250 250 250 251 252 252 253 255 257 259 256 248 240 233 228 227 228 226 221 215 210 207 209 215 220 224 229 233 238 244 253 265 277 288 294 298 299 301 303 305 308 310 313 316 319 320 322 324 325 326 327 328 329 331 333 334 334 333 334 337 340 340 340 339 338 336 336 335 335 334
261 261 261 259 257 256 255 253 251 248 245 244 246 247 247 247 247 248 249 249 249 250 253 255 252 245 235 226 220 219 221 220 216 212 207 205 206 211 215 219 223 227 231 236 244 254 267 280 289 295 297 299 301 303 305 308 311 314 317 320 322 324 326 326 326 328 329 330 332 334 333 332 332 334 337 339 340 340 340 338 337 337 336 336 336
258 258 259 259 258 255 251 247 244 242 240 240 240 242 242 242 244 246 247 248 250 251 250 244 233 224 217 212 212 216 218 216 211 206 202 202 206 210 213 217 221 225 229 235 243 255 269 281 289 294 295 297 300 303 306 309 312 315 319 322 324 326 327 327 327 329 330 331 333 333 332 331 332 334 337 339 340 340 340 339 338 338 338 338 337
254 255 257 259 258 253 247 241 238 237 236 235 236 237 238 239 241 244 246 247 248 244 232 216 206 205 205 206 210 214 214 210 205 201 200 202 206 208 211 215 218 222 227 234 243 256 271 282 288 292 295 298 301 305 308 311 314 317 321 324 326 327 327 328 329 331 332 333 333 332 331 332 333 335 336 338 339 340 340 340 339 339 339 339 338
248 249 251 253 252 248 242 238 235 234 233 233 234 235 237 239 241 242 242 241 236 223 206 195 193 196 201 206 211 212 209 203 200 199 200 202 204 206 209 213 216 220 226 234 245 259 272 281 286 290 295 299 303 307 310 312 316 319 323 325 326 327 328 330 330 331 332 333 333 331 331 333 334 335 336 337 337 339 340 340 340 340 340 340 339
242 243 244 245 243 239 237 235 233 231 231 231 233 234 236 238 239 238 234 227 216 200 189 186 188 194 201 206 208 207 203 199 198 198 199 201 202 204 208 212 215 219 226 236 248 260 271 278 284 290 295 299 304 307 310 313 317 320 323 325 326 327 328 329 330 331 332 332 331 331 332 333 334 334 335 336 336 337 339 340 341 341 341 341 340
236 238 238 236 233 231 231 230 229 228 228 230 231 233 235 235 233 228 219 207 193 183 179 182 189 196 201 203 202 200 198 197 197 198 199 200 201 204 207 211 214 220 229 239 250 260 269 275 282 288 294 298 303 306 308 312 316 319 322 325 326 327 327 329 330 330 330 330 330 332 333 333 333 334 335 335 335 337 338 340 341 341 341 341 341
230 232 233 231 228 227 227 227 225 224 224 225 228 231 232 228 217 204 192 183 176 174 177 186 194 199 200 199 197 195 194 195 197 197 198 199 201 204 208 211 216 223 232 242 252 261 269 276 282 288 293 298 302 305 308 311 315 318 321 324 325 326 327 328 328 328 328 329 331 332 332 332 333 334 334 334 335 336 337 339 340 341 342 342 342
224 225 227 228 226 225 224 223 221 219 218 219 221 221 215 201 186 177 172 169 169 174 182 190 196 198 197 195 194 193 193 195 196 196 197 199 202 205 208 213 219 228 236 245 255 264 271 277 283 289 295 299 303 306 308 311 314 317 320 322 324 325 326 325 326 327 328 329 330 331 332 332 332 333 333 333 334 334 336 338 340 342 342 342 343
217 216 218 220 221 220 218 216 215 213 209 205 198 189 179 171 166 164 164 165 171 180 187 191 192 193 192 191 191 192 194 195 195 195 198 201 203 207 211 217 224 232 240 249 259 267 274 280 285 291 297 301 304 306 308 310 313 316 319 321 323 324 324 324 325 327 328 328 328 330 332 332 332 332 333 333 333 334 335 337 340 341 342 343 343
Height
3014 3015 3014 3014 3013 3012 3012 3012 3012 3012 3011 3011 3011 3011 3011 3010 3011 3011 3012 3013 3014 3013 3012 3012 3011 3011 3011 3011 3010 3010 3010 3010 3010 3010 3010 3010 3011 3011 3011 3011 3011 3011 3011 3011 3010 3010 3009 3009 3008 3007 3007 3007 3006 3006 3005 3005 3004 3004 3003 3003 3002 3001 2999 2996 2992 2990 2991 2994 2994 2990 2983 2980 2979 2978 2975 2971 2969 2967 2965 2963 2962 2960 2958 2956 2955
3009 3009 3009 3008 3007 3007 3006 3005 3005 3005 3005 3005 3005 3006 3005 3005 3005 3005 3006 3007 3007 3008 3007 3007 3007 3006 3006 3006 3005 3005 3005 3005 3004 3004 3005 3005 3005 3005 3006 3006 3006 3006 3006 3005 3005 3005 3004 3004 3003 3002 3002 3002 3001 3001 3001 3000 2999 2999 2999 2998 2997 2996 2994 2992 2989 2985 2983 2985 2988 2987 2981 2975 2972 2972 2969 2965 2962 2960 2958 2955 2953 2951 2949 2947 2946
3003 3003 3002 3001 3001 3001 3000 2999 2998 2998 2998 2999 2999 3000 3000 2999 2999 2999 3000 3001 3001 3002 3002 3002 3002 3001 3001 3001 3000 3000 3000 2999 2999 2999 2999 2999 3000 3000 3000 3000 3000 3000 3000 3000 3000 2999 2999 2998 2998 2997 2997 2997 2996 2996 2995 2995 2994 2994 2994 2993 2992 2991 2989 2987 2984 2981 2977 2976 2979 2980 2976 2970 2966 2964 2962 2960 2957 2952 2949 2948 2945 2943 2941 2938 2937
2997 2995 2995 2995 2995 2994 2993 2992 2992 2991 2992 2993 2993 2994 2994 2993 2993 2993 2994 2994 2995 2996 2996 2996 2996 2995 2995 2995 2995 2995 2994 2994 2994 2993 2994 2994 2994 2994 2995 2995 2995 2995 2995 2995 2994 2994 2994 2993 2992 2992 2992 2991 2991 2991 2990 2990 2989 2988 2988 2987 2986 2985 2984 2982 2980 2977 2973 2969 2970 2972 2969 2963 2959 2957 2954 2953 2950 2946 2942 2940 2938 2936 2933 2930 2927
2990 2989 2988 2988 2987 2986 2986 2985 2985 2985 2986 2986 2987 2988 2988 2987 2987 2987 2987 2988 2989 2990 2989 2989 2989 2989 2990 2990 2990 2989 2989 2989 2988 2988 2988 2988 2988 2989 2989 2989 2990 2990 2989 2989 2989 2989 2988 2988 2987 2987 2986 2986 2986 2986 2985 2984 2983 2982 2982 2981 2980 2979 2978 2977 2975 2972 2968 2964 2962 2963 2963 2958 2953 2950 2949 2945 2940 2938 2936 2934 2930 2927 2925 2923 2919
2982 2982 2981 2980 2979 2979 2979 2978 2978 2979 2979 2979 2979 2980 2980 2980 2981 2981 2981 2981 2982 2983 2983 2984 2984 2983 2984 2984 2983 2983 2983 2983 2982 2982 2982 2982 2983 2983 2983 2984 2984 2984 2984 2983 2983 2983 2983 2982 2982 2981 2981 2981 2981 2980 2979 2978 2977 2977 2976 2975 2974 2973 2972 2970 2969 2966 2964 2961 2957 2955 2955 2952 2948 2945 2944 2939 2932 2927 2924 2924 2922 2917 2914 2914 2912
2975 2975 2973 2972 2971 2971 2971 2971 2972 2972 2972 2972 2972 2972 2971 2972 2974 2974 2975 2975 2975 2976 2977 2977 2978 2977 2977 2977 2977 2977 2977 2977 2976 2976 2977 2977 2977 2977 2977 2978 2978 2977 2978 2978 2978 2978 2977 2977 2976 2976 2976 2975 2975 2974 2973 2973 2972 2971 2971 2969 2968 2966 2965 2964 2962 2960 2957 2955 2953 2950 2947 2945 2942 2939 2935 2930 2925 2919 2912 2909 2911 2909 2904 2902 2901
2967 2966 2965 2964 2963 2963 2964 2965 2965 2965 2964 2964 2964 2963 2963 2964 2966 2967 2967 2967 2968 2969 2970 2970 2971 2970 2970 2970 2970 2970 2970 2970 2970 2971 2971 2971 2971 2971 2971 2971 2971 2972 2972 2972 2972 2972 2972 2971 2971 2970 2970 2970 2970 2969 2968 2967 2967 2966 2965 2963 2962 2960 2959 2957 2955 2954 2951 2947 2945 2942 2939 2936 2934 2931 2926 2920 2915 2912 2905 2897 2897 2898 2895 2892 2889
2958 2957 2956 2955 2955 2956 2957 2957 2957 2956 2956 2956 2955 2955 2955 2956 2958 2959 2960 2960 2961 2961 2962 2963 2963 2963 2963 2963 2963 2963 2964 2964 2965 2965 2965 2965 2965 2965 2965 2965 2965 2966 2966 2966 2966 2966 2966 2966 2965 2965 2965 2965 2964 2964 2963 2962 2961 2960 2959 2958 2956 2955 2953 2951 2948 2946 2942 2938 2935 2932 2928 2926 2924 2920 2917 2912 2905 2901 2897 2891 2886 2884 2880 2878 2880
2949 2949 2948 2948 2948 2949 2949 2948 2948 2948 2948 2948 2948 2947 2948 2949 2950 2951 2952 2953 2954 2954 2955 2955 2955 2956 2956 2957 2957 2957 2957 2958 2959 2959 2959 2959 2959 2959 2959 2959 2960 2960 2960 2959 2959 2959 2959 2960 2961 2961 2960 2960 2959 2958 2957 2957 2956 2954 2953 2951 2950 2948 2945 2943 2940 2937 2933 2929 2926 2922 2918 2917 2916 2911 2907 2903 2897 2891 2888 2883 2876 2872 2866 2860 2862
2940 2940 2940 2940 2940 2940 2939 2939 2940 2940 2940 2940 2940 2940 2940 2941 2943 2943 2945 2946 2946 2947 2947 2947 2948 2948 2949 2950 2950 2950 2951 2952 2953 2953 2952 2952 2952 2952 2953 2953 2954 2954 2954 2954 2953 2953 2954 2955 2956 2956 2955 2954 2954 2953 2952 2951 2949 2948 2946 2944 2943 2940 2938 2935 2932 2928 2925 2920 2918 2915 2911 2908 2908 2904 2898 2892 2887 2883 2879 2873 2866 2861 2857 2849 2845
2932 2932 2932 2933 2932 2931 2930 2931 2931 2931 2931 2932 2933 2933 2933 2934 2935 2936 2937 2938 2939 2940 2940 2940 2940 2941 2942 2943 2943 2944 2945 2946 2946 2945 2945 2945 2946 2946 2947 2947 2948 2948 2948 2948 2948 2948 2949 2950 2951 2950 2950 2949 2948 2947 2946 2945 2943 2942 2940 2939 2937 2934 2931 2928 2925 2921 2917 2913 2911 2909 2905 2900 2897 2895 2890 2883 2878 2875 2871 2866 2861 2854 2848 2843 2836
2924 2924 2925 2925 2924 2924 2923 2923 2923 2923 2924 2925 2926 2926 2926 2926 2928 2929 2930 2931 2932 2932 2932 2932 2933 2933 2934 2935 2937 2938 2939 2939 2939 2938 2939 2939 2940 2940 2941 2941 2942 2943 2943 2942 2942 2943 2944 2945 2945 2945 2945 2943 2942 2941 2940 2939 2938 2936 2935 2933 2931 2929 2926 2923 2920 2916 2911 2906 2903 2902 2898 2892 2887 2886 2884 2877 2870 2866 2861 2856 2853 2846 2839 2836 2829
2917 2917 2918 2917 2917 2917 2916 2916 2916 2916 2917 2917 2918 2918 2919 2920 2921 2922 2923 2923 2924 2924 2924 2924 2925 2926 2927 2929 2930 2931 2932 2932 2932 2931 2932 2933 2934 2934 2935 2936 2936 2937 2937 2937 2937 2938 2939 2939 2939 2939 2939 2938 2937 2936 2934 2933 2931 2930 2929 2927 2925 2923 2920 2918 2915 2909 2905 2901 2897 2895 2892 2886 2880 2878 2876 2870 2861 2856 2851 2846 2843 2838 2832 2828 2823
2910 2911 2911 2910 2910 2910 2910 2910 2910 2910 2910 2910 2911 2911 2912 2913 2914 2915 2916 2916 2916 2917 2917 2917 2918 2919 2920 2922 2923 2924 2925 2925 2925 2925 2926 2927 2928 2929 2929 2930 2930 2931 2931 2931 2932 2933 2933 2933 2934 2934 2933 2933 2932 2930 2928 2926 2925 2923 2922 2920 2918 2916 2914 2911 2907 2902 2899 2895 2890 2887 2885 2880 2874 2869 2866 2862 2855 2849 2844 2838 2834 2831 2824 2818 2814
2904 2904 2904 2904 2905 2905 2904 2904 2903 2904 2904 2904 2905 2906 2907 2908 2908 2909 2909 2909 2910 2910 2910 2911 2912 2913 2914 2915 2916 2917 2918 2919 2918 2919 2921 2922 2922 2922 2923 2924 2925 2925 2925 2926 2927 2928 2928 2928 2928 2928 2928 2928 2926 2925 2923 2921 2919 2917 2916 2914 2911 2909 2907 2903 2900 2896 2892 2888 2883 2880 2877 2873 2868 2863 2859 2854 2849 2843 2837 2831 2829 2825 2816 2808 2805
2897 2897 2897 2898 2898 2898 2898 2898 2897 2898 2898 2899 2900 2901 2901 2902 2902 2903 2903 2903 2904 2904 2904 2905 2906 2907 2907 2908 2910 2911 2912 2912 2912 2914 2915 2915 2916 2917 2918 2918 2918 2919 2919 2920 2921 2922 2922 2922 2923 2922 2923 2922 2921 2920 2917 2915 2913 2911 2910 2908 2904 2902 2900 2896 2893 2890 2886 2881 2878 2874 2871 2867 2862 2858 2853 2849 2844 2838 2830 2824 2823 2819 2810 2801 2797
2892 2891 2891 2891 2891 2891 2891 2891 2892 2892 2893 2894 2895 2895 2895 2896 2896 2896 2896 2897 2897 2898 2898 2899 2899 2900 2901 2902 2904 2905 2905 2906 2906 2907 2908 2908 2909 2911 2912 2912 2912 2912 2913 2914 2915 2916 2916 2917 2917 2917 2917 2917 2915 2914 2912 2910 2908 2906 2903 2901 2898 2896 2893 2889 2886 2883 2878 2875 2872 2868 2864 2860 2855 2851 2846 2842 2838 2832 2823 2817 2815 2811 2803 2797 2791
2887 2886 2885 2885 2885 2885 2885 2885 2886 2886 2887 2888 2888 2888 2888 2888 2889 2889 2890 2890 2891 2891 2891 2892 2892 2893 2894 2896 2897 2898 2898 2899 2900 2901 2902 2902 2902 2904 2904 2905 2906 2906 2907 2908 2908 2909 2910 2911 2912 2911 2911 2911 2910 2909 2907 2905 2903 2900 2898 2895 2892 2889 2885 2881 2878 2875 2871 2867 2864 2860 2857 2852 2847 2843 2839 2834 2830 2825 2818 2811 2807 2802 2795 2790 2785
2880 2880 2879 2880 2879 2878 2878 2878 2879 2880 2880 2880 2880 2880 2881 2881 2882 2883 2883 2884 2884 2884 2885 2885 2885 2886 2888 2889 2890 2891 2892 2893 2894 2895 2895 2895 2896 2897 2898 2899 2900 2901 2901 2901 2901 2902 2904 2905 2905 2905 2904 2904 2903 2902 2901 2899 2896 2895 2892 2889 2886 2883 2879 2875 2871 2868 2863 2859 2855 2851 2848 2844 2839 2834 2829 2826 2821 2816 2811 2805 2800 2794 2787 2782 2779
2872 2872 2872 2872 2872 2872 2872 2871 2871 2872 2873 2873 2873 2873 2874 2875 2876 2876 2877 2877 2878 2878 2878 2878 2878 2880 2881 2883 2884 2885 2886 2887 2888 2888 2889 2888 2889 2891 2892 2893 2894 2895 2895 2895 2895 2896 2897 2898 2898 2898 2898 2898 2897 2896 2895 2893 2890 2888 2886 2883 2880 2876 2872 2868 2865 2860 2856 2852 2848 2844 2840 2836 2831 2826 2822 2818 2813 2808 2803 2799 2793 2788 2781 2774 2770
2864 2864 2864 2864 2864 2864 2864 2864 2864 2864 2864 2865 2866 2867 2867 2868 2868 2869 2870 2870 2871 2872 2872 2872 2872 2874 2875 2877 2878 2879 2880 2881 2882 2882 2882 2882 2883 2885 2886 2887 2888 2888 2888 2888 2889 2890 2891 2891 2891 2891 2891 2891 2891 2890 2888 2886 2884 2882 2880 2878 2874 2871 2867 2862 2858 2854 2850 2845 2841 2837 2833 2829 2824 2821 2817 2812 2807 2801 2796 2791 2786 2780 2774 2768 2762
2856 2856 2856 2855 2856 2856 2857 2857 2858 2857 2858 2858 2859 2859 2861 2861 2862 2862 2863 2863 2864 2865 2866 2867 2867 2868 2870 2871 2873 2874 2874 2875 2875 2875 2876 2876 2877 2878 2879 2880 2882 2882 2882 2882 2883 2884 2884 2884 2884 2885 2885 2885 2885 2884 2882 2880 2878 2876 2874 2872 2869 2865 2861 2856 2852 2848 2844 2839 2835 2830 2827 2822 2817 2814 2810 2806 2801 2796 2790 2785 2779 2772 2767 2763 2757
2850 2850 2849 2848 2848 2849 2849 2850 2850 2851 2852 2852 2853 2854 2855 2856 2856 2856 2856 2856 2857 2858 2859 2860 2861 2862 2864 2865 2866 2867 2867 2868 2868 2868 2869 2869 2870 2871 2873 2875 2875 2876 2876 2876 2878 2878 2878 2878 2878 2879 2879 2878 2878 2877 2876 2874 2872 2870 2868 2865 2862 2858 2854 2850 2847 2842 2838 2834 2829 2825 2821 2816 2811 2806 2802 2798 2794 2789 2784 2778 2772 2766 2760 2755 2751
2843 2843 2843 2842 2841 2841 2841 2842 2842 2844 2844 2845 2846 2847 2848 2849 2850 2850 2850 2850 2849 2850 2851 2852 2853 2855 2856 2858 2859 2860 2860 2861 2861 2861 2861 2862 2863 2864 2866 2868 2869 2870 2871 2871 2872 2873 2872 2873 2873 2873 2873 2872 2872 2871 2869 2867 2865 2863 2861 2858 2855 2851 2848 2844 2841 2837 2832 2828 2824 2819 2815 2810 2805 2800 2795 2790 2786 2781 2777 2772 2766 2760 2754 2748 2743
2835 2835 2836 2836 2835 2835 2835 2835 2836 2836 2837 2838 2839 2840 2841 2842 2842 2843 2843 2842 2842 2842 2843 2844 2845 2847 2848 2850 2851 2852 2853 2853 2854 2854 2855 2855 2856 2857 2860 2862 2862 2864 2865 2866 2867 2867 2867 2867 2868 2868 2867 2867 2866 2865 2863 2861 2859 2857 2854 2851 2848 2844 2841 2838 2835 2831 2827 2823 2818 2813 2808 2803 2798 2794 2788 2783 2779 2774 2769 2764 2759 2754 2747 2739 2733
2827 2827 2827 2828 2829 2829 2829 2829 2829 2829 2829 2830 2831 2832 2833 2834 2835 2836 2836 2836 2836 2836 2836 2837 2838 2839 2841 2844 2845 2845 2846 2847 2847 2848 2848 2849 2850 2852 2853 2855 2856 2857 2859 2861 2861 2861 2861 2862 2862 2862 2862 2861 2860 2859 2857 2855 2853 2850 2847 2844 2841 2838 2835 2832 2829 2825 2820 2816 2811 2806 2802 2797 2792 2788 2783 2777 2773 2768 2763 2756 2750 2745 2739 2731 2724
2818 2818 2819 2819 2820 2821 2821 2822 2822 2822 2822 2823 2823 2824 2825 2826 2827 2829 2830 2830 2830 2830 2831 2831 2832 2833 2834 2836 2837 2838 2839 2840 2840 2840 2841 2842 2843 2845 2846 2848 2850 2852 2853 2854 2855 2855 2856 2856 2857 2857 2857 2856 2855 2853 2851 2849 2846 2844 2841 2838 2835 2832 2830 2827 2824 2819 2815 2810 2805 2801 2796 2792 2787 2782 2776 2771 2767 2762 2756 2750 2743 2737 2731 2724 2716
2810 2810 2810 2811 2811 2812 2812 2812 2813 2814 2815 2815 2816 2816 2817 2818 2820 2821 2822 2823 2823 2824 2824 2825 2826 2826 2826 2827 2829 2830 2831 2833 2834 2835 2834 2834 2835 2836 2839 2842 2844 2846 2847 2848 2849 2850 2851 2851 2851 2852 2852 2851 2850 2848 2845 2843 2840 2837 2835 2832 2830 2827 2825 2822 2819 2815 2810 2805 2800 2796 2791 2786 2781 2776 2770 2765 2760 2755 2749 2743 2736 2730 2724 2717 2710
2800 2800 2801 2802 2803 2803 2803 2803 2803 2804 2806 2807 2808 2808 2809 2811 2812 2813 2814 2815 2816 2817 2817 2818 2819 2819 2819 2819 2821 2822 2824 2827 2828 2828 2827 2826 2827 2829 2832 2835 2836 2838 2840 2842 2844 2845 2846 2846 2846 2847 2847 2846 2844 2842 2840 2837 2834 2832 2829 2827 2824 2823 2820 2817 2813 2809 2804 2800 2795 2790 2785 2780 2775 2770 2763 2758 2753 2748 2742 2736 2730 2724 2718 2711 2704
2789 2790 2792 2793 2794 2794 2793 2793 2794 2794 2795 2797 2799 2800 2801 2802 2804 2805 2806 2808 2809 2809 2809 2809 2810 2811 2811 2812 2813 2814 2816 2818 2818 2818 2819 2820 2821 2823 2825 2827 2829 2831 2833 2836 2838 2839 2841 2841 2842 2842 2842 2841 2839 2837 2835 2832 2829 2827 2824 2822 2820 2818 2815 2811 2807 2803 2798 2794 2790 2785 2779 2774 2769 2763 2757 2751 2746 2741 2736 2730 2725 2719 2713 2706 2699
2779 2780 2782 2783 2784 2785 2784 2784 2784 2784 2785 2787 2789 2790 2792 2793 2795 2796 2798 2799 2801 2801 2801 2802 2802 2802 2803 2803 2804 2806 2807 2808 2809 2810 2811 2813 2815 2818 2820 2821 2822 2824 2827 2829 2832 2834 2836 2837 2837 2837 2836 2835 2834 2832 2829 2827 2824 2821 2819 2817 2815 2812 2809 2805 2801 2797 2792 2788 2784 2779 2773 2768 2763 2757 2752 2746 2740 2735 2730 2724 2719 2712 2706 2700 2694
2770 2771 2772 2773 2774 2775 2775 2775 2775 2775 2776 2778 2779 2781 2783 2785 2786 2787 2788 2790 2791 2791 2792 2793 2794 2794 2794 2795 2797 2798 2799 2800 2802 2803 2805 2807 2811 2814 2816 2817 2817 2818 2820 2823 2826 2828 2831 2832 2833 2832 2831 2830 2828 2826 2824 2821 2818 2815 2813 2811 2809 2807 2804 2800 2796 2791 2787 2782 2778 2773 2768 2763 2758 2753 2747 2742 2735 2730 2724 2719 2713 2706 2700 2693 2688
2761 2762 2763 2763 2764 2765 2766 2766 2766 2766 2767 2768 2770 2772 2774 2776 2777 2778 2779 2780 2781 2781 2782 2784 2785 2786 2787 2788 2789 2789 2790 2792 2794 2796 2799 2803 2808 2811 2812 2812 2812 2813 2815 2817 2820 2823 2825 2827 2827 2827 2826 2825 2823 2821 2819 2816 2813 2810 2808 2806 2804 2801 2798 2795 2790 2786 2782 2778 2773 2769 2764 2759 2753 2748 2742 2736 2731 2725 2720 2714 2707 2700 2694 2687 2680
2751 2752 2753 2754 2755 2756 2757 2757 2757 2757 2758 2759 2761 2763 2765 2767 2768 2768 2769 2770 2771 2772 2774 2775 2776 2777 2779 2780 2780 2781 2782 2784 2786 2789 2794 2799 2804 2806 2807 2808 2809 2810 2811 2812 2814 2817 2820 2821 2822 2822 2821 2820 2818 2816 2813 2811 2808 2805 2803 2801 2798 2796 2793 2789 2785 2780 2776 2773 2769 2764 2760 2755 2749 2743 2736 2731 2726 2720 2715 2708 2701 2695 2688 2681 2674
2742 2742 2744 2745 2746 2746 2748 2748 2749 2749 2749 2750 2752 2754 2755 2757 2758 2759 2760 2761 2762 2763 2764 2766 2768 2769 2771 2771 2772 2773 2774 2776 2779 2783 2790 2795 2799 2802 2804 2806 2807 2808 2808 2809 2809 2811 2814 2816 2816 2816 2815 2814 2813 2811 2808 2806 2803 2800 2798 2795 2793 2791 2787 2783 2779 2775 2771 2767 2763 2759 2755 2750 2745 2738 2732 2726 2721 2716 2710 2703 2697 2690 2684 2677 2669
2731 2732 2734 2736 2737 2737 2738 2739 2739 2740 2740 2741 2743 2744 2746 2747 2749 2750 2751 2752 2753 2754 2756 2758 2760 2761 2762 2763 2764 2765 2767 2769 2773 2779 2785 2790 2794 2798 2800 2802 2804 2805 2806 2806 2806 2807 2809 2810 2811 2811 2810 2809 2807 2805 2803 2801 2798 2795 2793 2790 2788 2785 2782 2777 2773 2769 2765 2762 2758 2755 2750 2745 2740 2734 2728 2722 2717 2711 2705 2698 2691 2685 2679 2672 2665
2720 2722 2724 2726 2726 2727 2727 2728 2729 2730 2731 2732 2733 2735 2736 2738 2740 2741 2742 2743 2745 2746 2748 2750 2752 2754 2756 2757 2757 2759 2761 2764 2769 2774 2779 2785 2790 2793 2795 2798 2800 2802 2803 2803 2803 2803 2804 2805 2805 2805 2804 2803 2802 2800 2798 2796 2793 2791 2788 2786 2783 2780 2776 2772 2768 2764 2761 2757 2754 2750 2746 2741 2735 2730 2724 2719 2712 2706 2699 2693 2686 2679 2672 2666 2660
2710 2712 2714 2715 2715 2716 2717 2719 2720 2721 2722 2723 2725 2726 2728 2729 2731 2732 2734 2735 2737 2739 2741 2743 2745 2748 2749 2750 2751 2753 2756 2760 2765 2770 2776 2781 2785 2788 2791 2794 2797 2799 2800 2800 2800 2800 2801 2801 2800 2800 2799 2798 2797 2795 2793 2791 2789 2786 2784 2781 2778 2775 2771 2767 2764 2760 2756 2753 2749 2745 2741 2735 2730 2726 2721 2715 2708 2701 2694 2688 2682 2675 2667 2660 2654
2700 2702 2703 2704 2705 2706 2708 2709 2710 2712 2714 2715 2717 2719 2720 2721 2723 2725 2726 2728 2730 2732 2734 2736 2739 2741 2741 2742 2744 2748 2753 2758 2763 2768 2773 2777 2780 2783 2786 2789 2792 2795 2796 2797 2797 2797 2797 2796 2795 2794 2793 2793 2792 2790 2788 2786 2784 2782 2779 2776 2773 2770 2766 2762 2759 2755 2752 2748 2744 2740 2736 2731 2726 2722 2717 2711 2704 2698 2691 2684 2678 2671 2664 2656 2649
2689 2691 2693 2694 2694 2696 2698 2700 2701 2703 2705 2707 2709 2711 2712 2714 2716 2717 2719 2721 2723 2725 2727 2730 2732 2733 2734 2737 2741 2746 2751 2757 2761 2765 2768 2772 2775 2778 2782 2785 2788 2791 2792 2793 2793 2793 2792 2792 2790 2789 2789 2788 2787 2785 2784 2782 2779 2777 2775 2772 2768 2764 2761 2757 2754 2751 2747 2744 2740 2736 2731 2727 2722 2717 2712 2706 2699 2694 2688 2681 2674 2667 2660 2653 2645
2678 2679 2682 2683 2684 2686 2688 2690 2693 2695 2697 2699 2701 2703 2705 2707 2708 2710 2712 2714 2716 2718 2721 2723 2725 2727 2729 2733 2738 2743 2749 2754 2757 2760 2764 2768 2771 2774 2777 2780 2783 2786 2788 2789 2789 2789 2788 2787 2786 2785 2784 2783 2782 2781 2779 2777 2775 2772 2770 2767 2763 2760 2757 2753 2750 2746 2743 2739 2735 2731 2727 2723 2719 2714 2708 2702 2695 2689 2683 2677 2670 2663 2656 2649 2641
2668 2669 2671 2673 2674 2677 2679 2681 2684 2686 2688 2691 2694 2696 2698 2700 2701 2703 2705 2708 2710 2712 2715 2717 2719 2722 2725 2729 2735 2740 2745 2749 2753 2757 2761 2764 2767 2770 2773 2776 2779 2782 2784 2785 2785 2784 2783 2783 2782 2781 2780 2779 2778 2776 2774 2772 2770 2768 2765 2762 2759 2756 2752 2749 2746 2742 2739 2735 2731 2727 2723 2719 2715 2710 2704 2698 2692 2685 2679 2673 2666 2659 2652 2645 2637
2659 2661 2662 2664 2666 2668 2670 2672 2675 2677 2681 2684 2686 2689 2691 2693 2695 2697 2700 2702 2705 2707 2710 2712 2714 2717 2721 2725 2731 2736 2741 2746 2750 2754 2757 2760 2763 2766 2769 2772 2775 2778 2779 2780 2780 2779 2779 2778 2778 2777 2776 2775 2774 2772 2770 2768 2766 2763 2760 2758 2755 2751 2748 2745 2742 2738 2734 2730 2726 2722 2719 2715 2710 2705 2700 2694 2688 2682 2676 2669 2662 2655 2649 2641 2633
2651 2653 2655 2657 2658 2660 2662 2665 2668 2671 2674 2677 2680 2682 2685 2687 2690 2692 2695 2697 2700 2702 2704 2706 2709 2713 2717 2723 2729 2734 2739 2743 2747 2750 2753 2756 2759 2762 2765 2769 2772 2774 2774 2775 2775 2775 2774 2774 2773 2773 2772 2771 2769 2767 2765 2763 2761 2758 2755 2753 2750 2747 2744 2741 2737 2733 2730 2725 2721 2718 2714 2710 2706 2701 2696 2691 2685 2678 2672 2666 2659 2652 2645 2638 2630
2644 2647 2649 2651 2653 2655 2657 2660 2663 2666 2669 2672 2675 2677 2680 2682 2685 2687 2689 2691 2694 2696 2698 2702 2705 2710 2715 2722 2728 2733 2737 2741 2744 2747 2750 2753 2756 2759 2762 2765 2768 2769 2770 2770 2770 2770 2770 2770 2769 2769 2768 2766 2765 2763 2761 2759 2757 2754 2751 2748 2745 2743 2740 2736 2733 2729 2726 2722 2718 2715 2710 2706 2702 2698 2693 2687 2682 2676 2670 2664 2657 2650 2643 2635 2627
2638 2641 2643 2646 2648 2650 2653 2656 2659 2661 2664 2667 2670 2672 2675 2677 2680 2681 2683 2686 2689 2692 2695 2699 2703 2709 2715 2722 2726 2731 2735 2738 2741 2744 2747 2750 2753 2756 2759 2762 2763 2764 2765 2766 2766 2766 2766 2766 2765 2765 2764 2762 2761 2759 2757 2755 2753 2750 2747 2745 2742 2739 2736 2733 2729 2726 2723 2719 2715 2711 2707 2703 2699 2695 2690 2685 2679 2673 2668 2662 2655 2648 2641 2633 2626
2633 2636 2638 2641 2644 2646 2649 2652 2655 2657 2659 2662 2664 2667 2669 2671 2674 2676 2679 2682 2685 2689 2693 2698 2703 2710 2716 2720 2724 2728 2732 2736 2739 2742 2745 2748 2751 2753 2756 2758 2759 2760 2761 2762 2762 2762 2762 2762 2762 2761 2760 2758 2757 2755 2753 2751 2749 2747 2744 2742 2739 2736 2733 2730 2726 2723 2720 2717 2713 2709 2704 2700 2696 2692 2687 2682 2677 2671 2665 2659 2652 2646 2639 2632 2625
2629 2632 2634 2637 2640 2643 2646 2648 2650 2652 2654 2656 2659 2661 2664 2667 2670 2673 2676 2680 2684 2688 2694 2699 2706 2711 2715 2719 2723 2727 2730 2734 2737 2740 2743 2745 2748 2750 2752 2754 2755 2756 2757 2758 2758 2758 2758 2758 2757 2757 2756 2755 2753 2752 2750 2748 2746 2743 2741 2738 2736 2733 2730 2727 2724 2721 2718 2714 2710 2706 2702 2698 2694 2689 2684 2680 2674 2669 2663 2657 2651 2644 2637 2630 2623
2625 2628 2631 2634 2637 2640 2642 2644 2646 2647 2649 2652 2655 2658 2661 2664 2668 2672 2676 2681 2685 2690 2696 2702 2707 2711 2715 2719 2722 2726 2729 2733 2736 2738 2741 2743 2746 2748 2749 2751 2752 2753 2753 2753 2754 2754 2754 2754 2753 2753 2752 2750 2749 2747 2746 2744 2742 2740 2737 2735 2732 2730 2727 2724 2721 2718 2714 2711 2707 2703 2699 2695 2691 2687 2682 2677 2672 2667 2662 2656 2650 2643 2636 2629 2622
2623 2625 2628 2632 2634 2637 2639 2641 2643 2645 2647 2650 2653 2657 2660 2664 2669 2673 2678 2682 2687 2692 2698 2703 2707 2711 2714 2718 2722 2725 2729 2732 2734 2737 2739 2741 2743 2745 2746 2748 2749 2749 2750 2750 2750 2750 2750 2750 2749 2748 2747 2746 2744 2743 2742 2740 2738 2735 2733 2731 2729 2727 2724 2721 2718 2715 2711 2708 2705 2701 2697 2692 2688 2684 2679 2675 2670 2665 2660 2654 2648 2642 2636 2629 2621